Location: Dunedin
(45.8670°S, 170.5000°E)
Time: 10:32:49
(UTC+12:00)

Cosmos 1709 Rocket - Pass Details

Date: 24 January 2019
Orbit: 947 x 1003 km, 82.9° (Epoch: 18 April)

Event Time Altitude Azimuth Distance (km) Brightness Sun altitude
Exits shadow 23:14:55 24° 34° (NNE) 1,933 4.9 -16.0°
Maximum altitude 23:18:20 44° 91° (E) 1,343 4.5 -16.4°
Drops below altitude 10° 23:24:13 10° 160° (SSE) 2,743 6.8 -17.0°
Sets 23:26:50 0° 166° (SSE) 3,689 7.6 -17.3°
